Weather Roundup
Issued by NWS

Home | Current Version | Previous Version | Graphics & Text | Print | Product List | Glossary Off
Versions: 1 2 3 4 5 6 7 8 9 10 11 12 13 14 15 16 17 18 19 20 21 22 23 24 25 26 27 28 29 30 31 32 33 34 35 36 37 38 39 40 41 42 43 44 45 46 47 48 49 50

000
NZUS93 KARX 290159
HRRWXR

CURRENT HOURLY OBSERVATIONS ACROSS
MUCH OF THE UPPER MISSISSIPPI VALLEY
NATIONAL WEATHER SERVICE LA CROSSE WI
900 PM CDT THU MAY 28 2015


...SOUTHEAST MINNESOTA...


CITY           SKY/WX    TMP DP  RH WIND       PRES   REMARKS
ROCHESTER      MOCLDY    72  53  51 S14       29.97S
ROCHESTER/MAYO FAIR      74  52  46 SE12G17   29.95S
WINONA         PTCLDY    73  55  53 SE6       29.96F
AUSTIN         MOCLDY    72  54  53 S9G17     29.96R
ALBERT LEA     MOCLDY    73  52  46 S10G17    29.93F
DODGE CENTER   PTCLDY    73  54  49 S13       29.95S
PRESTON        MOCLDY    70  52  53 S7        29.98F
OWATONNA       MOCLDY    75  52  43 S14G20    29.93R
FARIBAULT      MOCLDY    73  54  49 SE9       29.92S
$$

...ELSEWHERE IN MINNESOTA...


CITY           SKY/WX    TMP DP  RH WIND       PRES   REMARKS
MINNEAPOLIS    CLOUDY    77  51  40 SE10      29.90S
INTNL FALLS    LGT RAIN  59  57  93 N12       29.86R
DULUTH         CLOUDY    45  42  89 E12       29.94R FOG
RED WING       PTCLDY    75  52  43 SE9       29.92S
REDWOOD FALLS  CLOUDY    74  56  53 S18       29.89R
MANKATO        MOCLDY    75  55  50 S12G20    29.91R
WORTHINGTON    CLOUDY    66  55  68 S14       29.93R
FAIRMONT       MOCLDY    70  55  60 S17       29.93R
$$

...SOUTHWEST WISCONSIN...


CITY           SKY/WX    TMP DP  RH WIND       PRES   REMARKS
LA CROSSE      PTCLDY    75  54  47 SE9       29.96F
PRAIRIE DU CHI PTCLDY    74  51  43 CALM      29.99F
BOSCOBEL       CLEAR     68  58  70 CALM      30.00F
LONE ROCK      NOT AVBL
PLATTEVILLE    CLEAR     71  56  59 SE7       30.03S
FORT MC COY    PTCLDY    71  53  53 SE3       30.01F
VIROQUA        FAIR      70  53  53 SE6       30.02F
WIS DELLS      CLEAR     70  53  56 SE5       30.03F
$$

...ELSEWHERE IN WISCONSIN...


CITY           SKY/WX    TMP DP  RH WIND       PRES   REMARKS
MILWAUKEE      PTCLDY    65  53  65 SE8       30.09F
MADISON        PTCLDY    74  54  49 SE10      30.03F
GREEN BAY      CLEAR     70  57  63 S9        30.06S
EAU CLAIRE     PTCLDY    74  53  48 S12       29.95F
BLACK RVR FLS  FAIR      73  50  45 CALM      29.99F
MEDFORD        CLEAR     66  57  72 S7        30.01F
WAUSAU         CLEAR     71  55  56 S7        30.01S
WIS RAPIDS     CLEAR     71  53  52 S6        30.03F
MARSHFIELD     CLEAR     67  55  65 S8        30.01F
RICE LAKE      MOCLDY    72  54  53 SE5       29.96F
$$

...NORTHEAST IOWA...


CITY           SKY/WX    TMP DP  RH WIND       PRES   REMARKS
DECORAH        PTCLDY    72  54  53 S8        29.98F
MASON CITY     MOCLDY    71  58  63 S12       29.96F
CHARLES CITY   MOCLDY    72  54  53 S13       29.98F
OELWEIN        CLOUDY    73  54  49 S10       29.99F
$$

...ELSEWHERE IN IOWA...


CITY           SKY/WX    TMP DP  RH WIND       PRES   REMARKS
DES MOINES     CLOUDY    69  64  84 SE12      29.97S
IOWA CITY      CLOUDY    68  63  84 S5        30.02F
FORT DODGE     CLOUDY    70  61  73 S8        29.97R
$$

...NORTHERN ILLINOIS...


CITY           SKY/WX    TMP DP  RH WIND       PRES   REMARKS
CHICAGO-OHARE  MOCLDY    71  53  52 E8        30.08F
CHICAGO-MIDWAY MOCLDY    72  55  55 E8        30.08F
MOLINE         CLOUDY    70  58  65 CALM      30.02S
ROCKFORD       MOCLDY    74  50  42 SE9       30.06F
PEORIA         CLOUDY    75  62  64 S9        30.05S
$$

NOTE: "FAIR" INDICATES FEW OR NO CLOUDS BELOW 12,000 FEET WITH NO
SIGNIFICANT WEATHER AND/OR OBSTRUCTIONS TO VISIBILITY. WIND
SPEEDS ARE IN MILES-PER-HOUR.



USA.gov is the U.S. government's official web portal to all federal, state and local government web resources and services.